When you browse on this site, cookies collect data to enhance your experience and personalize the content and advertising you see.
Visit our Privacy Policy to learn more. By continuing to use the site, you agree to this use of cookies and data.
  • en France
  • Liste des pays
  • À 7 jours
  • Température de l'eau
  • Carte satellitaire
  • Carte météo
  • Widgets météo
  • user-avatar
    Se connecter

    Météo par heure à Kitzbühel

    Ce jour, 16 Février, Samedi

    Heure Température Précipitation Vent Pression Humidité
    00:00 +1°C° 0 mm 2 m/s 685 mmHg 54%
    01:00 +1°C° 0 mm 2 m/s 685 mmHg 53%
    02:00 +1°C° 0 mm 2 m/s 685 mmHg 53%
    03:00 +1°C° 0 mm 2 m/s 685 mmHg 53%
    04:00 +1°C° 0 mm 2 m/s 684 mmHg 53%
    05:00 +1°C° 0 mm 2 m/s 684 mmHg 53%
    06:00 +1°C° 0 mm 2 m/s 684 mmHg 53%
    07:00 +1°C° 0 mm 2 m/s 684 mmHg 53%
    08:00 +3°C° 0 mm 2 m/s 685 mmHg 60%
    09:00 +4°C° 0 mm 2 m/s 685 mmHg 68%
    10:00 +7°C° 0 mm 1 m/s 685 mmHg 76%
    11:00 +7°C° 0 mm 1 m/s 685 mmHg 81%
    12:00 +8°C° 0 mm 1 m/s 685 mmHg 86%
    13:00 +9°C° 0 mm 1 m/s 684 mmHg 92%
    14:00 +8°C° 0 mm 1 m/s 684 mmHg 89%
    15:00 +8°C° 0 mm 1 m/s 684 mmHg 87%
    16:00 +8°C° 0 mm 1 m/s 684 mmHg 85%
    17:00 +6°C° 0 mm 1 m/s 684 mmHg 77%
    18:00 +4°C° 0 mm 2 m/s 684 mmHg 69%
    19:00 +3°C° 0 mm 2 m/s 684 mmHg 61%
    20:00 +2°C° 0 mm 2 m/s 684 mmHg 59%
    21:00 +2°C° 0 mm 2 m/s 684 mmHg 56%
    22:00 +1°C° 0 mm 2 m/s 684 mmHg 53%
    23:00 +1°C° 0 mm 2 m/s 684 mmHg 52%

    Demain, 17 Février, Dimanche

    Heure Température Précipitation Vent Pression Humidité
    00:00 +1°C° 0 mm 2 m/s 684 mmHg 51%
    01:00 +1°C° 0 mm 2 m/s 684 mmHg 50%
    02:00 +1°C° 0 mm 2 m/s 683 mmHg 49%
    03:00 +1°C° 0 mm 2 m/s 683 mmHg 49%
    04:00 +1°C° 0 mm 2 m/s 683 mmHg 48%
    05:00 +1°C° 0 mm 2 m/s 683 mmHg 48%
    06:00 +1°C° 0 mm 2 m/s 683 mmHg 47%
    07:00 +1°C° 0 mm 2 m/s 683 mmHg 47%
    08:00 +2°C° 0 mm 2 m/s 683 mmHg 54%
    09:00 +4°C° 0 mm 2 m/s 683 mmHg 61%
    10:00 +6°C° 0 mm 2 m/s 683 mmHg 67%
    11:00 +8°C° 0 mm 1 m/s 683 mmHg 73%
    12:00 +9°C° 0 mm 1 m/s 682 mmHg 78%
    13:00 +9°C° 0 mm 1 m/s 682 mmHg 84%
    14:00 +9°C° 0 mm 1 m/s 682 mmHg 83%
    15:00 +8°C° 0 mm 1 m/s 681 mmHg 82%
    16:00 +8°C° 0 mm 1 m/s 681 mmHg 81%
    17:00 +6°C° 0 mm 1 m/s 681 mmHg 74%
    18:00 +4°C° 0 mm 2 m/s 681 mmHg 66%
    19:00 +3°C° 0 mm 2 m/s 681 mmHg 58%
    20:00 +2°C° 0 mm 2 m/s 681 mmHg 55%
    21:00 +2°C° 0 mm 2 m/s 681 mmHg 52%
    22:00 +1°C° 0 mm 2 m/s 681 mmHg 49%
    23:00 +1°C° 0 mm 2 m/s 681 mmHg 48%

    Après-demain, 18 Février, Lundi

    Heure Température Précipitation Vent Pression Humidité
    00:00 +1°C° 0 mm 2 m/s 681 mmHg 47%
    01:00 +1°C° 0 mm 2 m/s 681 mmHg 46%
    02:00 +1°C° 0 mm 2 m/s 680 mmHg 46%
    03:00 +1°C° 0 mm 2 m/s 680 mmHg 46%
    04:00 -1°C° 0 mm 2 m/s 680 mmHg 45%
    05:00 -1°C° 0 mm 2 m/s 680 mmHg 45%
    06:00 -1°C° 0 mm 2 m/s 680 mmHg 45%
    07:00 -1°C° 0 mm 2 m/s 679 mmHg 45%
    08:00 +2°C° 0 mm 2 m/s 680 mmHg 52%
    09:00 +4°C° 0 mm 2 m/s 680 mmHg 58%
    10:00 +6°C° 0 mm 1 m/s 680 mmHg 64%
    11:00 +7°C° 0 mm 1 m/s 680 mmHg 70%
    12:00 +8°C° 0 mm 1 m/s 679 mmHg 75%
    13:00 +9°C° 0 mm 1 m/s 679 mmHg 80%
    14:00 +8°C° 0 mm 1 m/s 679 mmHg 81%
    15:00 +8°C° 0 mm 1 m/s 678 mmHg 83%
    16:00 +7°C° 0 mm 1 m/s 678 mmHg 85%
    17:00 +6°C° 0 mm 1 m/s 678 mmHg 80%
    18:00 +5°C° 0 mm 1 m/s 678 mmHg 75%
    19:00 +2°C° 0 mm 2 m/s 678 mmHg 70%
    20:00 +2°C° 0 mm 2 m/s 678 mmHg 66%
    21:00 +2°C° 0 mm 2 m/s 678 mmHg 62%
    22:00 +1°C° 0 mm 2 m/s 678 mmHg 59%
    23:00 +1°C° 0 mm 2 m/s 678 mmHg 57%

    19 Février, Mardi

    Heure Température Précipitation Vent Pression Humidité
    00:00 +1°C° 0 mm 2 m/s 678 mmHg 56%
    01:00 +1°C° 0 mm 2 m/s 678 mmHg 54%
    02:00 +1°C° 0 mm 2 m/s 678 mmHg 54%
    03:00 +1°C° 0 mm 2 m/s 678 mmHg 54%
    04:00 +1°C° 0 mm 2 m/s 678 mmHg 53%
    05:00 -1°C° 0 mm 2 m/s 678 mmHg 54%
    06:00 -1°C° 0 mm 2 m/s 678 mmHg 54%
    07:00 -1°C° 0 mm 2 m/s 678 mmHg 54%
    08:00 +3°C° 0 mm 1 m/s 679 mmHg 60%
    09:00 +4°C° 0 mm 1 m/s 679 mmHg 65%
    10:00 +6°C° 0 mm 1 m/s 679 mmHg 71%
    11:00 +7°C° 0 mm 1 m/s 679 mmHg 72%
    12:00 +7°C° 0 mm 0 m/s 679 mmHg 73%
    13:00 +7°C° 0 mm 0 m/s 679 mmHg 74%
    14:00 +7°C° 0 mm 0 m/s 679 mmHg 76%
    15:00 +6°C° 0 mm 0 m/s 679 mmHg 78%
    16:00 +7°C° 0 mm 1 m/s 678 mmHg 80%
    17:00 +5°C° 0 mm 1 m/s 679 mmHg 80%
    18:00 +4°C° 0 mm 1 m/s 679 mmHg 80%
    19:00 +2°C° 0 mm 1 m/s 679 mmHg 80%
    20:00 +2°C° 0 mm 1 m/s 679 mmHg 80%
    21:00 +1°C° 0 mm 1 m/s 680 mmHg 80%
    22:00 +1°C° 0 mm 1 m/s 680 mmHg 81%
    23:00 +1°C° 0 mm 1 m/s 680 mmHg 80%

    20 Février, Mercredi

    Heure Température Précipitation Vent Pression Humidité
    00:00 +1°C° 0 mm 1 m/s 680 mmHg 79%
    01:00 +1°C° 0 mm 1 m/s 680 mmHg 78%
    02:00 +1°C° 0 mm 1 m/s 680 mmHg 77%
    03:00 +1°C° 0 mm 1 m/s 680 mmHg 75%
    04:00 -2°C° 0 mm 2 m/s 680 mmHg 74%
    05:00 -2°C° 0 mm 2 m/s 680 mmHg 73%
    06:00 -2°C° 0 mm 2 m/s 680 mmHg 72%
    07:00 -2°C° 0 mm 2 m/s 680 mmHg 70%
    08:00 +2°C° 0 mm 1 m/s 681 mmHg 71%
    09:00 +4°C° 0 mm 1 m/s 681 mmHg 72%
    10:00 +5°C° 0 mm 0 m/s 682 mmHg 72%
    11:00 +6°C° 0 mm 0 m/s 682 mmHg 72%
    12:00 +6°C° 0 mm 0 m/s 682 mmHg 71%
    13:00 +7°C° 0 mm 0 m/s 681 mmHg 71%
    14:00 +7°C° 0 mm 0 m/s 681 mmHg 72%
    15:00 +7°C° 0 mm 0 m/s 681 mmHg 74%
    16:00 +6°C° 0 mm 0 m/s 681 mmHg 76%
    17:00 +6°C° 0 mm 1 m/s 681 mmHg 77%
    18:00 +4°C° 0 mm 1 m/s 681 mmHg 77%
    19:00 +3°C° 0 mm 1 m/s 681 mmHg 78%
    20:00 +2°C° 0 mm 1 m/s 681 mmHg 77%
    21:00 +2°C° 0 mm 1 m/s 682 mmHg 75%
    22:00 +2°C° 0 mm 1 m/s 682 mmHg 74%
    23:00 +2°C° 0 mm 1 m/s 682 mmHg 72%

    21 Février, Jeudi

    Heure Température Précipitation Vent Pression Humidité
    00:00 +2°C° 0 mm 1 m/s 682 mmHg 70%
    01:00 +2°C° 0 mm 1 m/s 682 mmHg 68%
    02:00 +2°C° 0 mm 1 m/s 682 mmHg 67%
    03:00 +2°C° 0 mm 1 m/s 682 mmHg 66%
    04:00 +2°C° 0 mm 1 m/s 682 mmHg 65%
    05:00 +2°C° 0 mm 1 m/s 682 mmHg 65%
    06:00 +2°C° 0 mm 1 m/s 682 mmHg 65%
    07:00 +2°C° 0 mm 1 m/s 682 mmHg 64%
    08:00 +3°C° 0 mm 1 m/s 683 mmHg 66%
    09:00 +5°C° 0 mm 1 m/s 683 mmHg 68%
    10:00 +6°C° 0 mm 0 m/s 683 mmHg 69%
    11:00 +6°C° 0 mm 0 m/s 683 mmHg 68%
    12:00 +7°C° 0 mm 0 m/s 683 mmHg 67%
    13:00 +7°C° 0 mm 0 m/s 683 mmHg 65%
    14:00 +7°C° 0 mm 0 m/s 682 mmHg 69%
    15:00 +7°C° 0 mm 0 m/s 682 mmHg 72%
    16:00 +6°C° 0 mm 0 m/s 682 mmHg 75%
    17:00 +5°C° 0 mm 0 m/s 682 mmHg 76%
    18:00 +6°C° 0 mm 1 m/s 682 mmHg 76%
    19:00 +5°C° 0 mm 1 m/s 682 mmHg 76%
    20:00 +5°C° 0 mm 1 m/s 682 mmHg 75%
    21:00 +4°C° 0 mm 1 m/s 682 mmHg 74%
    22:00 +4°C° 0 mm 1 m/s 682 mmHg 74%
    23:00 +4°C° 0 mm 1 m/s 682 mmHg 74%
    Voir plus